When you browse on this site, cookies collect data to enhance your experience and personalize the content and advertising you see.
Visit our Privacy Policy to learn more. By continuing to use the site, you agree to this use of cookies and data.
  • In Germany
  • List of Countries
  • For 7 days
  • Water Temperature
  • Satellite Maps
  • Weather Map
  • Weather Widgets
  • user-avatar
    Login

    Hourly Weather Remontnoe

    Today, 20 November, Tuesday

    Time Temperature Precipitation Wind Pressure Humidity
    00:00 -1°C° 0 mm 3 mps 758 mmHg 71%
    01:00 -1°C° 0 mm 3 mps 758 mmHg 72%
    02:00 -1°C° 0 mm 3 mps 758 mmHg 72%
    03:00 -1°C° 0 mm 3 mps 757 mmHg 76%
    04:00 -1°C° 0 mm 3 mps 757 mmHg 76%
    05:00 -1°C° 0 mm 3 mps 757 mmHg 76%
    06:00 -1°C° 0 mm 3 mps 757 mmHg 77%
    07:00 -1°C° 0.1 mm 4 mps 757 mmHg 77%
    08:00 -1°C° 0.1 mm 4 mps 757 mmHg 78%
    09:00 -1°C° 0 mm 4 mps 757 mmHg 77%
    10:00 0°C° 0 mm 4 mps 756 mmHg 77%
    11:00 0°C° 0 mm 4 mps 756 mmHg 77%
    12:00 0°C° 0 mm 4 mps 756 mmHg 78%
    13:00 0°C° 0.6 mm 4 mps 755 mmHg 80%
    14:00 0°C° 0.6 mm 4 mps 755 mmHg 83%
    15:00 0°C° 0 mm 4 mps 754 mmHg 88%
    16:00 0°C° 0.5 mm 4 mps 754 mmHg 89%
    17:00 0°C° 0.5 mm 4 mps 754 mmHg 90%
    18:00 0°C° 0.5 mm 5 mps 754 mmHg 91%
    19:00 0°C° 0.3 mm 4 mps 754 mmHg 91%
    20:00 -1°C° 0.3 mm 4 mps 754 mmHg 92%
    21:00 -1°C° 0.3 mm 4 mps 754 mmHg 92%
    22:00 -1°C° 0.6 mm 4 mps 754 mmHg 92%
    23:00 -1°C° 0.6 mm 4 mps 754 mmHg 92%

    Tomorrow, 21 November, Wednesday

    Time Temperature Precipitation Wind Pressure Humidity
    00:00 -1°C° 0.6 mm 5 mps 754 mmHg 92%
    01:00 -1°C° 0 mm 4 mps 754 mmHg 90%
    02:00 -1°C° 0 mm 4 mps 754 mmHg 89%
    03:00 -2°C° 0 mm 4 mps 755 mmHg 87%
    04:00 -1°C° 0 mm 3 mps 755 mmHg 83%
    05:00 -2°C° 0 mm 3 mps 755 mmHg 80%
    06:00 -2°C° 0 mm 3 mps 755 mmHg 76%
    07:00 -2°C° 0 mm 3 mps 756 mmHg 73%
    08:00 -2°C° 0 mm 3 mps 756 mmHg 71%
    09:00 -2°C° 0 mm 3 mps 756 mmHg 68%
    10:00 -2°C° 0 mm 3 mps 756 mmHg 68%
    11:00 -1°C° 0 mm 2 mps 756 mmHg 69%
    12:00 +1°C° 0 mm 2 mps 756 mmHg 69%
    13:00 +1°C° 0 mm 2 mps 756 mmHg 72%
    14:00 +1°C° 0 mm 2 mps 755 mmHg 74%
    15:00 +1°C° 0 mm 2 mps 755 mmHg 76%
    16:00 -1°C° 0 mm 2 mps 755 mmHg 79%
    17:00 -2°C° 0 mm 2 mps 755 mmHg 81%
    18:00 -2°C° 0 mm 2 mps 755 mmHg 84%
    19:00 -3°C° 0 mm 2 mps 755 mmHg 85%
    20:00 -3°C° 0 mm 2 mps 755 mmHg 85%
    21:00 -3°C° 0 mm 2 mps 755 mmHg 86%
    22:00 -3°C° 0 mm 2 mps 754 mmHg 87%
    23:00 -3°C° 0 mm 2 mps 754 mmHg 88%

    Day after tomorrow, 22 November, Thursday

    Time Temperature Precipitation Wind Pressure Humidity
    00:00 -4°C° 0 mm 2 mps 754 mmHg 89%
    01:00 -4°C° 0 mm 2 mps 754 mmHg 89%
    02:00 -4°C° 0 mm 2 mps 754 mmHg 89%
    03:00 -4°C° 0 mm 2 mps 754 mmHg 90%
    04:00 -4°C° 0 mm 2 mps 754 mmHg 90%
    05:00 -4°C° 0 mm 2 mps 754 mmHg 90%
    06:00 -4°C° 0 mm 2 mps 754 mmHg 89%
    07:00 -4°C° 0 mm 2 mps 754 mmHg 87%
    08:00 -4°C° 0 mm 2 mps 754 mmHg 85%
    09:00 -3°C° 0 mm 2 mps 754 mmHg 83%
    10:00 -2°C° 0 mm 2 mps 754 mmHg 81%
    11:00 -2°C° 0 mm 3 mps 753 mmHg 78%
    12:00 -1°C° 0 mm 3 mps 753 mmHg 75%
    13:00 -1°C° 0 mm 3 mps 753 mmHg 76%
    14:00 -1°C° 0 mm 3 mps 753 mmHg 76%
    15:00 -1°C° 0 mm 3 mps 753 mmHg 77%
    16:00 -2°C° 0 mm 3 mps 753 mmHg 81%
    17:00 -4°C° 0 mm 3 mps 753 mmHg 85%
    18:00 -5°C° 0 mm 3 mps 753 mmHg 89%
    19:00 -5°C° 0 mm 3 mps 753 mmHg 89%
    20:00 -5°C° 0 mm 3 mps 753 mmHg 89%
    21:00 -5°C° 0 mm 3 mps 754 mmHg 90%
    22:00 -5°C° 0 mm 3 mps 754 mmHg 89%
    23:00 -6°C° 0 mm 3 mps 754 mmHg 88%

    23 November, Friday

    Time Temperature Precipitation Wind Pressure Humidity
    00:00 -6°C° 0 mm 3 mps 754 mmHg 88%
    01:00 -7°C° 0 mm 4 mps 753 mmHg 87%
    02:00 -7°C° 0 mm 4 mps 753 mmHg 86%
    03:00 -7°C° 0 mm 4 mps 753 mmHg 85%
    04:00 -7°C° 0 mm 5 mps 753 mmHg 84%
    05:00 -7°C° 0 mm 5 mps 753 mmHg 84%
    06:00 -8°C° 0 mm 6 mps 753 mmHg 83%
    07:00 -8°C° 0 mm 6 mps 753 mmHg 82%
    08:00 -8°C° 0 mm 7 mps 754 mmHg 81%
    09:00 -7°C° 0 mm 7 mps 754 mmHg 80%
    10:00 -7°C° 0 mm 7 mps 754 mmHg 79%
    11:00 -6°C° 0 mm 7 mps 755 mmHg 78%
    12:00 -4°C° 0 mm 7 mps 755 mmHg 77%
    13:00 -4°C° 0 mm 7 mps 755 mmHg 77%
    14:00 -4°C° 0 mm 7 mps 756 mmHg 76%
    15:00 -3°C° 0 mm 6 mps 757 mmHg 76%
    16:00 -4°C° 0 mm 6 mps 757 mmHg 77%
    17:00 -4°C° 0 mm 5 mps 758 mmHg 79%
    18:00 -4°C° 0 mm 4 mps 759 mmHg 80%
    19:00 -5°C° 0 mm 4 mps 760 mmHg 80%
    20:00 -5°C° 0 mm 3 mps 761 mmHg 80%
    21:00 -5°C° 0 mm 2 mps 762 mmHg 80%
    22:00 -5°C° 0 mm 2 mps 762 mmHg 77%
    23:00 -5°C° 0 mm 2 mps 763 mmHg 75%

    24 November, Saturday

    Time Temperature Precipitation Wind Pressure Humidity
    00:00 -3°C° 0 mm 1 mps 763 mmHg 72%
    01:00 -3°C° 0 mm 1 mps 763 mmHg 71%
    02:00 -3°C° 0 mm 1 mps 763 mmHg 69%
    03:00 -3°C° 0 mm 1 mps 764 mmHg 67%
    04:00 -3°C° 0 mm 1 mps 764 mmHg 67%
    05:00 -4°C° 0 mm 1 mps 764 mmHg 66%
    06:00 -4°C° 0 mm 1 mps 764 mmHg 66%
    07:00 -3°C° 0 mm 1 mps 764 mmHg 64%
    08:00 -3°C° 0 mm 1 mps 765 mmHg 62%
    09:00 -2°C° 0 mm 1 mps 765 mmHg 61%
    10:00 -1°C° 0 mm 1 mps 765 mmHg 58%
    11:00 -2°C° 0 mm 2 mps 765 mmHg 55%
    12:00 -1°C° 0 mm 2 mps 765 mmHg 52%
    13:00 -1°C° 0 mm 2 mps 764 mmHg 53%
    14:00 -1°C° 0 mm 2 mps 764 mmHg 55%
    15:00 -1°C° 0 mm 2 mps 764 mmHg 56%
    16:00 -2°C° 0 mm 2 mps 763 mmHg 59%
    17:00 -4°C° 0 mm 3 mps 763 mmHg 61%
    18:00 -4°C° 0 mm 3 mps 763 mmHg 63%
    19:00 -5°C° 0 mm 3 mps 763 mmHg 64%
    20:00 -5°C° 0 mm 3 mps 763 mmHg 64%
    21:00 -5°C° 0 mm 4 mps 763 mmHg 65%
    22:00 -5°C° 0 mm 4 mps 762 mmHg 65%
    23:00 -5°C° 0 mm 3 mps 762 mmHg 65%

    25 November, Sunday

    Time Temperature Precipitation Wind Pressure Humidity
    00:00 -5°C° 0 mm 3 mps 762 mmHg 64%
    01:00 -5°C° 0 mm 3 mps 761 mmHg 66%
    02:00 -5°C° 0 mm 3 mps 761 mmHg 67%
    03:00 -5°C° 0 mm 3 mps 760 mmHg 69%
    04:00 -5°C° 0 mm 3 mps 760 mmHg 73%
    05:00 -5°C° 0 mm 3 mps 760 mmHg 77%
    06:00 -5°C° 0 mm 3 mps 759 mmHg 81%
    07:00 -4°C° 0 mm 3 mps 759 mmHg 82%
    08:00 -2°C° 0 mm 3 mps 759 mmHg 84%
    09:00 -2°C° 0 mm 4 mps 758 mmHg 85%
    10:00 -1°C° 0 mm 4 mps 758 mmHg 85%
    11:00 0°C° 0 mm 4 mps 758 mmHg 85%
    12:00 +3°C° 0 mm 4 mps 757 mmHg 84%
    13:00 +3°C° 0 mm 3 mps 757 mmHg 86%
    14:00 +2°C° 0 mm 3 mps 756 mmHg 88%
    15:00 +2°C° 0 mm 3 mps 756 mmHg 90%
    16:00 +2°C° 0 mm 3 mps 756 mmHg 92%
    17:00 +1°C° 0 mm 3 mps 756 mmHg 93%
    18:00 0°C° 0 mm 3 mps 756 mmHg 95%
    19:00 0°C° 0 mm 3 mps 756 mmHg 94%
    20:00 0°C° 0 mm 3 mps 755 mmHg 94%
    21:00 +1°C° 0 mm 2 mps 755 mmHg 94%
    22:00 +1°C° 0 mm 2 mps 755 mmHg 94%
    23:00 +1°C° 0 mm 2 mps 755 mmHg 94%
    Show more